EUTELSAT 117 WEST B (41589 NORAD) Tracking and Keplerian Element Data

This shows tracking and keplerian element data for the satellite.

Feedback or suggestion? Click here.




ElementValue
Catalog41589
NameEUTELSAT 117 WEST B
Epoch Orbit775
Epoch Day202.49374086
Epoch Year2018
RAAN150.5873
Inclination0.0011
Eccentricity3.3E-05
Argument of Perigee65.263
Mean Anonmoly144.1474
Mean Motion1.00268571
Decay Rate-2.6E-07
L11 41589U 16038B 18202.49374086 -.00000026 00000-0 00000+0 0 9997
L22 41589 0.0011 150.5873 0000330 65.2630 144.1474 1.00268571 7752

Live tracking and technical data element details for EUTELSAT 117 WEST B (NORAD 41589). EUTELSAT 117 WEST B can be tracked NOW for your location showing map with azimuth and elevation plus other details from your city location.

Track the satellite on the map from your city or location and see movement details for azimuth, elevation, latitude, longitude, range, height, and movement on the map or in text.







IsCatalogInMostPopularTable: catalog: 41589, numindb: 90
Update: records affected: 1



GetName: 41589 EUTELSAT 117 WEST B

Hit Count: updated at: Mon, 23 Jul 2018 08:02:08 GMT